When you browse on this site, cookies collect data to enhance your experience and personalize the content and advertising you see.
Visit our Privacy Policy to learn more. By continuing to use the site, you agree to this use of cookies and data.

Hourly Weather San Carlos

Today, 13 August, Thursday

Time Temperature Precipitation Wind Pressure Humidity
00:00 +25°C° 0.4 mm 1 mps 743 mmHg 97%
01:00 +25°C° 0.4 mm 1 mps 743 mmHg 97%
02:00 +25°C° 0.1 mm 1 mps 743 mmHg 97%
03:00 +25°C° 0.1 mm 1 mps 743 mmHg 97%
04:00 +24°C° 0.1 mm 1 mps 743 mmHg 97%
05:00 +23°C° 0 mm 0 mps 743 mmHg 96%
06:00 +24°C° 0 mm 0 mps 743 mmHg 96%
07:00 +24°C° 0 mm 0 mps 744 mmHg 95%
08:00 +26°C° 0 mm 0 mps 744 mmHg 86%
09:00 +30°C° 0 mm 1 mps 744 mmHg 78%
10:00 +31°C° 0 mm 2 mps 744 mmHg 69%
11:00 +31°C° 0.2 mm 2 mps 743 mmHg 70%
12:00 +32°C° 0.2 mm 2 mps 743 mmHg 70%
13:00 +32°C° 0.2 mm 2 mps 742 mmHg 71%
14:00 +31°C° 0.5 mm 1 mps 742 mmHg 75%
15:00 +31°C° 0.5 mm 1 mps 741 mmHg 79%
16:00 +30°C° 0.5 mm 1 mps 740 mmHg 84%
17:00 +29°C° 0.5 mm 1 mps 741 mmHg 87%
18:00 +28°C° 0.5 mm 1 mps 742 mmHg 91%
19:00 +24°C° 0.5 mm 0 mps 742 mmHg 95%
20:00 +26°C° 0.2 mm 1 mps 743 mmHg 95%
21:00 +26°C° 0.2 mm 1 mps 743 mmHg 96%
22:00 +25°C° 0.2 mm 1 mps 743 mmHg 96%
23:00 +25°C° 0.4 mm 1 mps 743 mmHg 96%

Tomorrow, 14 August, Friday

Time Temperature Precipitation Wind Pressure Humidity
00:00 +25°C° 0.4 mm 1 mps 743 mmHg 96%
01:00 +25°C° 0.4 mm 1 mps 742 mmHg 96%
02:00 +25°C° 0.3 mm 1 mps 742 mmHg 96%
03:00 +24°C° 0.3 mm 1 mps 742 mmHg 96%
04:00 +24°C° 0.3 mm 1 mps 742 mmHg 96%
05:00 +23°C° 0.1 mm 0 mps 743 mmHg 95%
06:00 +24°C° 0.1 mm 0 mps 743 mmHg 94%
07:00 +25°C° 0.1 mm 0 mps 743 mmHg 93%
08:00 +26°C° 0.9 mm 0 mps 743 mmHg 90%
09:00 +29°C° 0.9 mm 1 mps 743 mmHg 87%
10:00 +30°C° 0.9 mm 1 mps 743 mmHg 84%
11:00 +31°C° 0.5 mm 1 mps 743 mmHg 79%
12:00 +32°C° 0.5 mm 1 mps 742 mmHg 75%
13:00 +32°C° 0.5 mm 1 mps 742 mmHg 70%
14:00 +32°C° 0.6 mm 1 mps 741 mmHg 75%
15:00 +29°C° 0.6 mm 0 mps 741 mmHg 79%
16:00 +29°C° 0.6 mm 0 mps 740 mmHg 84%
17:00 +27°C° 1.1 mm 0 mps 741 mmHg 87%
18:00 +26°C° 1.1 mm 0 mps 741 mmHg 91%
19:00 +25°C° 1.1 mm 0 mps 742 mmHg 95%
20:00 +24°C° 0.2 mm 0 mps 742 mmHg 95%
21:00 +26°C° 0.2 mm 1 mps 743 mmHg 96%
22:00 +26°C° 0.2 mm 1 mps 743 mmHg 96%
23:00 +25°C° 0.3 mm 1 mps 743 mmHg 96%

Day after tomorrow, 15 August, Saturday

Time Temperature Precipitation Wind Pressure Humidity
00:00 +25°C° 0.3 mm 1 mps 743 mmHg 97%
01:00 +25°C° 0.3 mm 1 mps 742 mmHg 97%
02:00 +25°C° 0.6 mm 1 mps 742 mmHg 97%
03:00 +24°C° 0.6 mm 1 mps 742 mmHg 97%
04:00 +24°C° 0.6 mm 1 mps 742 mmHg 97%
05:00 +23°C° 0.1 mm 0 mps 742 mmHg 96%
06:00 +24°C° 0.1 mm 0 mps 743 mmHg 95%
07:00 +24°C° 0.1 mm 0 mps 743 mmHg 94%
08:00 +26°C° 0.9 mm 0 mps 744 mmHg 91%
09:00 +27°C° 0.9 mm 0 mps 744 mmHg 88%
10:00 +30°C° 0.9 mm 1 mps 744 mmHg 85%
11:00 +31°C° 0.5 mm 1 mps 743 mmHg 82%
12:00 +31°C° 0.5 mm 1 mps 742 mmHg 79%
13:00 +32°C° 0.5 mm 1 mps 742 mmHg 77%
14:00 +31°C° 0.3 mm 1 mps 741 mmHg 79%
15:00 +31°C° 0.3 mm 1 mps 741 mmHg 81%
16:00 +31°C° 0.3 mm 1 mps 740 mmHg 84%
17:00 +29°C° 0.6 mm 1 mps 741 mmHg 88%
18:00 +28°C° 0.6 mm 1 mps 741 mmHg 92%
19:00 +25°C° 0.6 mm 0 mps 742 mmHg 96%
20:00 +24°C° 0.2 mm 0 mps 742 mmHg 96%
21:00 +24°C° 0.2 mm 0 mps 743 mmHg 96%
22:00 +26°C° 0.2 mm 1 mps 743 mmHg 96%
23:00 +25°C° 0 mm 1 mps 743 mmHg 95%

16 August, Sunday

Time Temperature Precipitation Wind Pressure Humidity
00:00 +25°C° 0 mm 1 mps 743 mmHg 95%
01:00 +25°C° 0 mm 1 mps 742 mmHg 95%
02:00 +25°C° 0 mm 1 mps 742 mmHg 95%
03:00 +23°C° 0 mm 0 mps 742 mmHg 94%
04:00 +22°C° 0 mm 0 mps 742 mmHg 94%
05:00 +23°C° 0 mm 0 mps 743 mmHg 93%
06:00 +24°C° 0 mm 0 mps 743 mmHg 92%
07:00 +25°C° 0 mm 0 mps 743 mmHg 91%
08:00 +26°C° 0.1 mm 0 mps 744 mmHg 85%
09:00 +30°C° 0.1 mm 1 mps 744 mmHg 78%
10:00 +31°C° 0.1 mm 2 mps 744 mmHg 72%
11:00 +31°C° 0.7 mm 1 mps 743 mmHg 74%
12:00 +32°C° 0.7 mm 1 mps 743 mmHg 75%
13:00 +32°C° 0.7 mm 1 mps 742 mmHg 77%
14:00 +32°C° 0.7 mm 1 mps 741 mmHg 80%
15:00 +31°C° 0.7 mm 1 mps 741 mmHg 82%
16:00 +31°C° 0.7 mm 1 mps 741 mmHg 85%
17:00 +28°C° 0.9 mm 0 mps 741 mmHg 88%
18:00 +26°C° 0.9 mm 0 mps 742 mmHg 91%
19:00 +25°C° 0.9 mm 0 mps 742 mmHg 94%
20:00 +26°C° 0 mm 1 mps 743 mmHg 94%
21:00 +26°C° 0 mm 1 mps 743 mmHg 94%
22:00 +26°C° 0 mm 1 mps 744 mmHg 94%
23:00 +25°C° 0 mm 1 mps 743 mmHg 94%

17 August, Monday

Time Temperature Precipitation Wind Pressure Humidity
00:00 +25°C° 0 mm 1 mps 743 mmHg 94%
01:00 +25°C° 0 mm 1 mps 742 mmHg 94%
02:00 +25°C° 0 mm 1 mps 742 mmHg 94%
03:00 +24°C° 0 mm 1 mps 742 mmHg 93%
04:00 +24°C° 0 mm 1 mps 742 mmHg 93%
05:00 +25°C° 0 mm 1 mps 743 mmHg 92%
06:00 +26°C° 0 mm 1 mps 743 mmHg 90%
07:00 +25°C° 0 mm 0 mps 744 mmHg 89%
08:00 +28°C° 0.3 mm 1 mps 744 mmHg 84%
09:00 +30°C° 0.3 mm 1 mps 744 mmHg 78%
10:00 +32°C° 0.3 mm 1 mps 744 mmHg 73%
11:00 +32°C° 0.8 mm 1 mps 743 mmHg 75%
12:00 +32°C° 0.8 mm 1 mps 743 mmHg 77%
13:00 +31°C° 0.8 mm 1 mps 742 mmHg 80%
14:00 +31°C° 0.4 mm 1 mps 742 mmHg 81%
15:00 +31°C° 0.4 mm 1 mps 741 mmHg 81%
16:00 +29°C° 0.4 mm 0 mps 741 mmHg 82%
17:00 +27°C° 0.3 mm 0 mps 741 mmHg 86%
18:00 +26°C° 0.3 mm 0 mps 742 mmHg 90%
19:00 +25°C° 0.3 mm 0 mps 742 mmHg 94%
20:00 +24°C° 0.5 mm 0 mps 742 mmHg 95%
21:00 +26°C° 0.5 mm 1 mps 743 mmHg 95%
22:00 +26°C° 0.5 mm 1 mps 743 mmHg 95%
23:00 +26°C° 0.1 mm 1 mps 743 mmHg 95%

18 August, Tuesday

Time Temperature Precipitation Wind Pressure Humidity
00:00 +26°C° 0.1 mm 1 mps 742 mmHg 95%
01:00 +26°C° 0.1 mm 1 mps 742 mmHg 95%
02:00 +25°C° 0.1 mm 1 mps 742 mmHg 95%
03:00 +25°C° 0.1 mm 1 mps 742 mmHg 95%
04:00 +25°C° 0.1 mm 1 mps 742 mmHg 95%
05:00 +25°C° 0 mm 1 mps 742 mmHg 94%
06:00 +24°C° 0 mm 0 mps 743 mmHg 94%
07:00 +24°C° 0 mm 0 mps 743 mmHg 93%
08:00 +26°C° 0.4 mm 0 mps 743 mmHg 86%
09:00 +29°C° 0.4 mm 0 mps 743 mmHg 78%
10:00 +31°C° 0.4 mm 0 mps 743 mmHg 71%
11:00 +32°C° 1.9 mm 1 mps 743 mmHg 76%
12:00 +32°C° 1.9 mm 1 mps 742 mmHg 80%
13:00 +31°C° 1.9 mm 1 mps 742 mmHg 85%
14:00 +31°C° 1.8 mm 1 mps 741 mmHg 87%
15:00 +28°C° 1.8 mm 0 mps 741 mmHg 89%
16:00 +28°C° 1.8 mm 0 mps 741 mmHg 91%
17:00 +27°C° 1.2 mm 0 mps 741 mmHg 92%
18:00 +26°C° 1.2 mm 0 mps 742 mmHg 93%
19:00 +25°C° 1.2 mm 0 mps 742 mmHg 93%
20:00 +24°C° 0.3 mm 0 mps 743 mmHg 94%
21:00 +26°C° 0.3 mm 1 mps 743 mmHg 95%
22:00 +26°C° 0.3 mm 1 mps 743 mmHg 95%
23:00 +26°C° 0 mm 1 mps 743 mmHg 95%
Show more